Regional Weather Roundup
Issued by NWS Albany, NY

Home | Current Version | Previous Version | Graphics & Text | Print | Product List | Glossary On
Versions: 1 2 3 4 5 6 7 8 9 10 11 12 13 14 15 16 17 18 19 20 21 22 23 24 25 26 27
000
ASUS41 KALY 231110
RWRALY

NEW YORK STATE HOURLY WEATHER ROUNDUP
NATIONAL WEATHER SERVICE ALBANY NY
600 AM EST THU FEB 23 2017

NOTE: "FAIR" INDICATES FEW OR NO CLOUDS BELOW 12,000 FEET WITH NO
SIGNIFICANT WEATHER AND/OR NO OBSTRUCTIONS TO VISIBILITY.

NYZ032-033-038>043-046>054-057>066-NYZ062>081-082-084-231200-
EAST


CITY           SKY/WX    TMP DP  RH WIND       PRES   REMARKS
ALBANY         MOCLDY    43  36  76 S3        29.83S
GLENS FALLS    CLOUDY    36  31  82 CALM      29.82F
POUGHKEEPSIE   CLEAR     33  32  96 CALM      29.85S
NEWBURGH       PTCLDY    37  37 100 CALM      29.85F
MONTGOMERY     CLEAR     32  30  92 CALM      29.84S
WHITE PLAINS   CLEAR     35  34  96 CALM      29.87R
ISLIP          FOG       37  37 100 CALM      29.89S VSB 3/4
NEW YORK CITY  PTCLDY    42  38  85 NE6       29.89R
CENTRAL PARK   CLEAR     45  40  82 NE3       29.91R
$$

NYZ005>009-017-018-044>046-055-056-231200-
CENTRAL


CITY           SKY/WX    TMP DP  RH WIND       PRES   REMARKS
FULTON         CLOUDY    45  39  79 CALM      29.74S
SYRACUSE       CLOUDY    52  42  69 S9        29.74S
ROME           CLOUDY    44  39  82 SE7       29.79S
ELMIRA         CLOUDY    38  36  92 SE3       29.79F FOG
BINGHAMTON     MOCLDY    46  39  76 S6        29.80S
MONTICELLO     CLEAR     36  36 100 N5        29.85S WCI  32
$$

NYZ026>034-041>043-087-231200-
NORTH


CITY           SKY/WX    TMP DP  RH WIND       PRES   REMARKS
WATERTOWN      CLOUDY    55  45  68 S8G17     29.69F
FORT DRUM      NOT AVBL
OGDENSBURG     CLOUDY    50  45  83 S5        29.67F
MASSENA        CLOUDY    39  35  86 CALM      29.69F
SARANAC LAKE   CLOUDY    36  34  92 CALM      29.72S
PLATTSBURGH    CLOUDY    33  30  88 CALM      29.74S
$$

NYZ001>004-010>016-019>021-085-231200-
WEST


CITY           SKY/WX    TMP DP  RH WIND       PRES   REMARKS
NIAGARA FALLS  PTCLDY    55  48  77 S9        29.66F
BUFFALO        MOCLDY    56  49  77 S13       29.68F
DUNKIRK        MOCLDY    56  50  80 S17G23    29.70F
JAMESTOWN      CLOUDY    52  46  82 SW12      29.74F
WELLSVILLE     PTCLDY    52  47  83 MISG      29.77F
ROCHESTER      PTCLDY    55  48  77 SW10      29.71S
PENN YAN       PTCLDY    46  38  73 S7        29.75F
$$

             KEY
       WCI = WIND CHILL INDEX
       VSB = VISIBILITY
       HX  = HEAT INDEX
$$




USA.gov is the U.S. government's official web portal to all federal, state and local government web resources and services.